QPF
0.00 0.00 0.00 0.00 0.00 0.00 0.00 0.00 0.00 0.00 0.00 0.00 0.00 0.00 0.00 0.00 0.00 0.00 0.00 0.00 0.00 0.00 0.00 0.00 0.00 0.00 0.00 0.00 0.00 0.00 0.00 0.00 0.00 0.00 0.00 0.00 0.00 0.00 0.00 0.00 0.00 0.00 0.00
0.00 0.00 0.00 0.00 0.00 0.00 0.00 0.00 0.00 0.00 0.00 0.00 0.00 0.00 0.00 0.00 0.00 0.00 0.00 0.00 0.00 0.00 0.00 0.00 0.00 0.00 0.00 0.00 0.00 0.00 0.00 0.00 0.00 0.00 0.00 0.00 0.00 0.00 0.00 0.00 0.00 0.00 0.00
0.00 0.00 0.00 0.00 0.00 0.00 0.00 0.00 0.00 0.00 0.00 0.00 0.00 0.00 0.00 0.00 0.00 0.00 0.00 0.00 0.00 0.00 0.00 0.00 0.00 0.00 0.00 0.00 0.00 0.00 0.00 0.00 0.00 0.00 0.00 0.00 0.00 0.00 0.00 0.00 0.00 0.00 0.00
0.00 0.00 0.00 0.00 0.00 0.00 0.00 0.00 0.00 0.00 0.00 0.00 0.00 0.00 0.00 0.00 0.00 0.00 0.00 0.00 0.00 0.00 0.00 0.00 0.00 0.00 0.00 0.00 0.00 0.00 0.00 0.00 0.00 0.00 0.00 0.00 0.00 0.00 0.00 0.00 0.00 0.00 0.00
0.00 0.01 0.01 0.00 0.00 0.00 0.00 0.00 0.00 0.00 0.00 0.00 0.00 0.00 0.00 0.00 0.00 0.00 0.00 0.00 0.00 0.00 0.00 0.00 0.00 0.00 0.00 0.00 0.00 0.00 0.00 0.00 0.00 0.00 0.00 0.00 0.00 0.00 0.00 0.00 0.00 0.00 0.00
0.03 0.04 0.02 0.01 0.01 0.00 0.00 0.00 0.00 0.00 0.00 0.00 0.00 0.00 0.00 0.00 0.00 0.00 0.00 0.00 0.00 0.00 0.00 0.00 0.00 0.00 0.00 0.00 0.00 0.00 0.00 0.00 0.00 0.00 0.00 0.00 0.00 0.00 0.00 0.00 0.00 0.00 0.00
0.01 0.01 0.01 0.01 0.01 0.01 0.01 0.01 0.02 0.02 0.01 0.01 0.01 0.01 0.00 0.00 0.00 0.00 0.00 0.00 0.00 0.00 0.00 0.00 0.00 0.00 0.00 0.00 0.00 0.00 0.00 0.00 0.00 0.00 0.00 0.00 0.00 0.00 0.00 0.01 0.01 0.02 0.04
0.00 0.00 0.00 0.00 0.00 0.01 0.03 0.05 0.03 0.02 0.02 0.03 0.04 0.03 0.01 0.04 0.01 0.00 0.00 0.00 0.00 0.00 0.00 0.00 0.00 0.00 0.00 0.00 0.00 0.00 0.00 0.00 0.00 0.00 0.00 0.00 0.00 0.00 0.02 0.06 0.10 0.15 0.18
0.00 0.00 0.00 0.00 0.00 0.00 0.00 0.01 0.02 0.02 0.03 0.04 0.05 0.01 0.01 0.01 0.03 0.02 0.01 0.00 0.01 0.01 0.01 0.01 0.02 0.00 0.01 0.02 0.00 0.00 0.00 0.00 0.00 0.01 0.02 0.02 0.04 0.06 0.08 0.07 0.09 0.16 0.23
0.00 0.00 0.00 0.00 0.00 0.00 0.00 0.00 0.00 0.01 0.01 0.02 0.04 0.01 0.04 0.01 0.03 0.01 0.01 0.01 0.02 0.03 0.05 0.06 0.10 0.06 0.03 0.02 0.02 0.01 0.03 0.03 0.03 0.05 0.06 0.07 0.08 0.11 0.16 0.10 0.09 0.16 0.23
0.00 0.00 0.00 0.00 0.00 0.00 0.00 0.00 0.00 0.00 0.01 0.02 0.02 0.02 0.03 0.04 0.04 0.04 0.03 0.02 0.07 0.14 0.13 0.10 0.09 0.13 0.07 0.07 0.10 0.10 0.19 0.17 0.17 0.10 0.08 0.10 0.10 0.12 0.16 0.23 0.30 0.33 0.34
0.00 0.00 0.00 0.00 0.00 0.00 0.00 0.00 0.00 0.00 0.00 0.00 0.02 0.03 0.03 0.04 0.07 0.04 0.02 0.02 0.07 0.13 0.17 0.17 0.20 0.23 0.20 0.22 0.28 0.38 0.44 0.38 0.32 0.36 0.38 0.39 0.37 0.36 0.41 0.42 0.39 0.33 0.26
0.00 0.00 0.00 0.00 0.00 0.00 0.00 0.00 0.00 0.00 0.00 0.00 0.00 0.00 0.01 0.02 0.05 0.07 0.05 0.05 0.07 0.08 0.17 0.30 0.35 0.36 0.31 0.25 0.26 0.29 0.33 0.35 0.40 0.45 0.47 0.50 0.50 0.44 0.32 0.22 0.13 0.09 0.06
0.00 0.00 0.00 0.00 0.00 0.00 0.00 0.00 0.00 0.00 0.00 0.00 0.00 0.00 0.00 0.00 0.01 0.01 0.05 0.10 0.11 0.12 0.16 0.17 0.16 0.13 0.13 0.15 0.18 0.21 0.22 0.22 0.21 0.22 0.21 0.20 0.18 0.15 0.12 0.10 0.08 0.06 0.05
0.00 0.00 0.00 0.00 0.00 0.00 0.00 0.00 0.00 0.01 0.00 0.00 0.00 0.00 0.00 0.01 0.02 0.01 0.01 0.01 0.01 0.02 0.02 0.03 0.03 0.03 0.03 0.05 0.06 0.08 0.09 0.10 0.10 0.11 0.10 0.09 0.07 0.05 0.03 0.01 0.01 0.00 0.00
0.00 0.00 0.00 0.00 0.00 0.00 0.00 0.00 0.01 0.01 0.00 0.00 0.01 0.01 0.01 0.02 0.01 0.00 0.00 0.01 0.01 0.00 0.00 0.00 0.01 0.01 0.02 0.03 0.03 0.04 0.04 0.04 0.04 0.04 0.03 0.02 0.01 0.00 0.00 0.00 0.00 0.00 0.00
0.00 0.00 0.00 0.00 0.00 0.00 0.00 0.00 0.00 0.00 0.00 0.00 0.01 0.01 0.01 0.02 0.01 0.01 0.00 0.00 0.00 0.00 0.00 0.01 0.02 0.02 0.03 0.03 0.03 0.03 0.03 0.03 0.02 0.01 0.00 0.00 0.00 0.00 0.00 0.00 0.00 0.00 0.00
0.00 0.00 0.00 0.00 0.00 0.00 0.00 0.00 0.00 0.00 0.00 0.00 0.01 0.01 0.01 0.01 0.01 0.01 0.00 0.00 0.00 0.00 0.01 0.01 0.01 0.02 0.02 0.02 0.02 0.02 0.01 0.00 0.00 0.00 0.00 0.00 0.00 0.00 0.00 0.00 0.00 0.00 0.00
0.00 0.00 0.00 0.00 0.00 0.00 0.00 0.00 0.00 0.00 0.00 0.00 0.00 0.00 0.01 0.01 0.00 0.00 0.00 0.00 0.01 0.01 0.01 0.01 0.01 0.01 0.01 0.00 0.00 0.00 0.00 0.00 0.00 0.00 0.00 0.00 0.00 0.00 0.00 0.00 0.00 0.00 0.00
0.00 0.00 0.00 0.00 0.00 0.00 0.00 0.00 0.00 0.00 0.00 0.00 0.00 0.01 0.01 0.00 0.00 0.01 0.01 0.01 0.01 0.01 0.00 0.00 0.00 0.00 0.00 0.00 0.00 0.00 0.00 0.00 0.00 0.00 0.00 0.00 0.00 0.00 0.00 0.00 0.00 0.00 0.00
0.00 0.00 0.00 0.00 0.00 0.00 0.00 0.00 0.00 0.00 0.00 0.00 0.00 0.00 0.00 0.00 0.00 0.00 0.00 0.00 0.00 0.00 0.00 0.00 0.00 0.00 0.00 0.00 0.00 0.00 0.00 0.00 0.00 0.00 0.00 0.00 0.00 0.00 0.00 0.00 0.00 0.00 0.00
0.00 0.00 0.00 0.00 0.00 0.00 0.00 0.00 0.00 0.00 0.00 0.00 0.00 0.00 0.00 0.00 0.00 0.00 0.00 0.00 0.00 0.00 0.00 0.00 0.00 0.00 0.00 0.00 0.00 0.00 0.00 0.00 0.00 0.00 0.00 0.00 0.00 0.00 0.00 0.00 0.00 0.00 0.00
0.00 0.00 0.00 0.00 0.00 0.00 0.00 0.00 0.00 0.00 0.00 0.00 0.00 0.00 0.00 0.00 0.00 0.00 0.00 0.00 0.00 0.00 0.00 0.00 0.00 0.00 0.00 0.00 0.00 0.00 0.00 0.00 0.00 0.00 0.00 0.00 0.00 0.00 0.00 0.00 0.00 0.00 0.00
0.00 0.00 0.00 0.00 0.00 0.00 0.00 0.00 0.00 0.00 0.00 0.00 0.00 0.00 0.00 0.00 0.00 0.00 0.00 0.00 0.00 0.00 0.00 0.00 0.00 0.00 0.00 0.00 0.00 0.00 0.00 0.00 0.00 0.00 0.00 0.00 0.00 0.00 0.00 0.00 0.00 0.00 0.00
0.00 0.00 0.00 0.00 0.00 0.00 0.00 0.00 0.00 0.00 0.00 0.00 0.00 0.00 0.00 0.00 0.00 0.00 0.00 0.00 0.00 0.00 0.00 0.00 0.00 0.00 0.00 0.00 0.00 0.00 0.00 0.00 0.00 0.00 0.00 0.00 0.00 0.00 0.00 0.00 0.00 0.00 0.00
0.00 0.00 0.00 0.00 0.00 0.00 0.00 0.00 0.00 0.00 0.00 0.00 0.00 0.00 0.00 0.00 0.00 0.00 0.00 0.00 0.00 0.00 0.00 0.00 0.00 0.00 0.00 0.00 0.00 0.00 0.00 0.00 0.00 0.00 0.00 0.00 0.00 0.00 0.00 0.00 0.00 0.00 0.00
MSLP
1005.52 1006.05 1006.52 1007.00 1007.62 1008.14 1008.82 1009.39 1009.90 1010.33 1010.85 1011.33 1011.63 1012.09 1012.60 1013.01 1013.38 1013.86 1014.30 1014.76 1015.21 1015.38 1015.54 1015.69 1015.76 1015.95 1016.34 1016.39 1016.84 1017.01 1016.83 1016.99 1017.52 1016.73 1016.50 1016.39 1016.62 1016.47 1016.26 1016.12 1016.05 1016.10 1015.98
1005.45 1005.96 1006.38 1006.69 1007.16 1007.71 1008.23 1008.82 1009.32 1009.82 1010.29 1010.65 1011.09 1011.59 1012.01 1012.40 1012.85 1013.25 1013.65 1013.98 1014.34 1014.61 1014.76 1014.98 1015.04 1015.32 1015.44 1015.50 1015.69 1015.78 1016.01 1016.00 1016.21 1016.08 1015.79 1015.91 1015.90 1015.52 1015.44 1015.46 1015.06 1014.92 1014.89
1005.79 1006.22 1006.60 1006.80 1007.11 1007.48 1007.83 1008.32 1008.89 1009.46 1009.92 1010.40 1010.82 1011.14 1011.43 1011.72 1012.03 1012.31 1012.59 1012.85 1013.10 1013.32 1013.61 1013.78 1013.99 1014.50 1014.70 1014.78 1014.94 1015.12 1015.10 1015.11 1015.21 1015.22 1014.91 1014.56 1014.48 1014.60 1014.59 1014.60 1014.30 1014.19 1014.01
1005.66 1006.12 1006.73 1007.06 1007.22 1007.46 1007.74 1008.11 1008.56 1009.05 1009.44 1009.80 1010.12 1010.42 1010.67 1011.02 1011.35 1011.67 1011.98 1012.22 1012.40 1012.60 1012.77 1012.82 1013.05 1013.36 1013.45 1013.79 1014.08 1014.08 1014.07 1014.21 1014.21 1014.26 1014.12 1013.77 1013.59 1013.36 1013.44 1013.28 1012.83 1012.90 1012.63
1005.56 1006.09 1006.41 1006.69 1006.97 1007.30 1007.62 1007.85 1008.10 1008.42 1008.77 1009.12 1009.56 1009.90 1010.14 1010.32 1010.51 1010.90 1011.27 1011.60 1011.85 1012.02 1012.01 1011.96 1012.06 1012.11 1012.07 1012.18 1012.69 1012.68 1013.17 1013.28 1013.30 1013.20 1013.04 1012.76 1012.48 1012.39 1012.40 1012.01 1011.65 1011.36 1010.75
1005.39 1005.76 1006.14 1006.43 1006.78 1007.02 1007.23 1007.38 1007.66 1007.97 1008.28 1008.51 1008.59 1008.87 1009.18 1009.37 1009.68 1010.11 1010.54 1010.76 1010.87 1010.91 1010.85 1010.90 1010.93 1011.11 1010.98 1011.21 1011.40 1011.35 1011.62 1012.00 1012.13 1012.00 1011.47 1011.25 1010.92 1010.85 1010.75 1010.63 1010.49 1010.68 1010.63
1006.13 1006.64 1006.78 1006.67 1006.79 1006.96 1007.08 1007.24 1007.48 1007.70 1007.79 1007.95 1008.10 1008.34 1008.48 1008.51 1008.83 1009.27 1009.56 1009.84 1009.83 1009.73 1009.74 1009.81 1009.82 1009.72 1009.81 1010.01 1010.05 1010.38 1010.48 1010.48 1010.40 1010.37 1010.05 1009.84 1009.59 1009.54 1009.69 1009.59 1009.63 1009.75 1009.97
1007.58 1007.93 1007.96 1007.79 1007.67 1007.53 1007.30 1007.06 1007.13 1007.21 1007.20 1007.40 1007.63 1007.85 1008.04 1008.04 1008.64 1008.52 1008.61 1008.89 1008.74 1008.53 1008.47 1008.46 1008.40 1008.17 1008.29 1008.48 1008.62 1008.90 1009.10 1009.26 1009.71 1009.87 1009.76 1009.28 1009.42 1009.56 1009.26 1009.05 1009.16 1010.13 1011.15
1009.11 1009.23 1009.32 1009.04 1008.91 1008.76 1008.48 1008.17 1007.95 1007.69 1007.31 1007.21 1007.13 1007.65 1008.16 1009.26 1009.60 1009.21 1008.92 1008.43 1008.07 1007.65 1007.37 1007.50 1008.28 1007.86 1007.68 1007.89 1007.94 1008.11 1008.75 1010.13 1010.68 1010.67 1010.67 1010.65 1010.72 1010.51 1009.99 1009.55 1009.79 1010.44 1011.41
1010.80 1010.56 1010.47 1010.24 1010.08 1009.99 1009.94 1009.68 1009.08 1008.54 1008.63 1008.74 1009.26 1010.00 1010.16 1010.41 1010.20 1009.61 1009.13 1008.73 1008.26 1007.91 1008.63 1009.17 1009.17 1008.77 1008.47 1008.16 1007.97 1007.86 1008.97 1010.74 1011.49 1011.88 1011.83 1011.52 1011.41 1011.13 1010.79 1010.90 1010.92 1011.82 1011.61
1012.22 1012.01 1011.75 1011.56 1011.24 1011.09 1010.86 1010.68 1010.20 1009.92 1009.98 1010.26 1010.76 1011.28 1011.33 1011.42 1011.23 1010.43 1009.44 1008.90 1008.91 1009.49 1009.96 1010.52 1010.92 1010.38 1008.76 1008.17 1007.78 1008.82 1010.12 1011.01 1011.13 1012.23 1013.05 1013.75 1014.30 1013.29 1012.58 1012.77 1012.79 1012.28 1013.85
1012.83 1012.79 1012.56 1012.40 1012.29 1012.29 1011.94 1011.61 1011.23 1011.07 1011.20 1011.41 1011.85 1012.28 1012.56 1012.53 1012.08 1011.53 1010.92 1010.47 1010.33 1010.41 1011.10 1011.39 1011.64 1010.36 1010.96 1010.58 1010.36 1010.05 1010.54 1011.19 1011.87 1012.26 1013.20 1013.23 1013.85 1014.43 1014.93 1014.99 1014.95 1014.30 1014.72
1013.73 1014.02 1013.92 1013.73 1013.55 1013.32 1012.91 1012.60 1012.30 1012.14 1012.12 1012.55 1012.86 1013.20 1013.44 1013.50 1013.36 1013.11 1012.73 1012.39 1012.05 1012.50 1012.91 1013.01 1013.24 1012.65 1012.01 1011.49 1012.22 1012.62 1011.77 1011.68 1012.84 1014.26 1014.24 1015.54 1015.84 1016.03 1015.54 1015.78 1016.22 1016.28 1016.54
1014.79 1014.94 1014.70 1014.46 1014.56 1014.30 1013.94 1013.80 1013.52 1013.44 1013.49 1013.74 1013.94 1014.16 1014.34 1014.33 1014.29 1014.18 1014.05 1014.02 1013.90 1013.74 1014.26 1014.37 1014.42 1014.38 1014.15 1014.65 1014.08 1014.29 1014.21 1014.66 1015.46 1015.77 1015.87 1016.83 1017.01 1016.99 1017.11 1016.91 1016.58 1017.49 1016.98
1015.81 1016.00 1015.79 1015.69 1015.55 1015.69 1015.59 1015.33 1015.32 1015.29 1014.90 1014.77 1014.96 1015.01 1015.04 1015.08 1015.32 1015.19 1015.11 1015.19 1015.40 1015.39 1015.19 1015.31 1015.48 1015.83 1016.36 1016.60 1016.58 1016.52 1016.43 1016.71 1017.25 1017.57 1017.72 1017.93 1017.79 1017.84 1018.19 1018.08 1017.50 1017.85 1017.83
1016.37 1016.57 1016.76 1016.80 1016.80 1016.86 1017.11 1017.21 1017.08 1017.02 1016.74 1016.39 1016.18 1016.08 1016.31 1016.43 1016.45 1016.39 1016.41 1016.43 1016.61 1016.58 1016.52 1017.03 1017.46 1017.56 1017.63 1018.00 1018.05 1018.04 1018.09 1018.33 1018.64 1018.78 1018.86 1018.94 1018.86 1018.86 1018.92 1019.11 1018.94 1018.78 1018.83
1017.60 1017.70 1017.79 1017.95 1018.11 1018.06 1018.29 1018.32 1018.57 1018.80 1018.62 1018.29 1018.04 1017.72 1017.59 1017.59 1017.63 1017.71 1017.80 1017.76 1017.90 1017.87 1018.31 1018.91 1019.05 1019.20 1019.29 1019.39 1019.45 1019.63 1019.87 1020.03 1020.03 1019.97 1019.90 1020.03 1020.17 1020.05 1020.01 1020.16 1020.12 1019.80 1019.56
1019.06 1019.13 1019.12 1019.45 1019.42 1019.43 1019.37 1019.48 1019.74 1020.01 1020.13 1020.00 1019.85 1019.40 1019.11 1018.85 1018.72 1018.73 1018.87 1018.79 1019.37 1019.82 1020.25 1020.58 1020.73 1020.84 1020.87 1020.83 1020.92 1020.99 1021.18 1021.47 1021.56 1021.49 1021.44 1021.47 1021.17 1021.09 1021.18 1021.13 1021.06 1021.00 1020.64
1020.13 1020.36 1020.46 1020.68 1020.69 1020.58 1020.59 1020.62 1020.91 1021.09 1021.28 1021.20 1021.08 1020.94 1020.99 1020.58 1020.30 1020.26 1020.38 1020.61 1021.06 1021.38 1021.69 1021.90 1022.15 1022.22 1022.18 1022.20 1022.38 1022.55 1022.63 1022.82 1022.97 1023.01 1023.22 1023.03 1022.87 1022.57 1022.50 1022.53 1022.28 1022.16 1021.90
1021.44 1021.30 1021.47 1021.70 1021.68 1021.73 1021.76 1021.83 1022.00 1022.12 1022.26 1022.46 1022.57 1022.61 1022.28 1021.99 1022.12 1022.41 1022.60 1022.73 1022.80 1023.21 1023.34 1023.42 1023.57 1023.45 1023.59 1023.72 1023.62 1023.67 1023.93 1024.15 1024.25 1024.29 1024.52 1024.47 1024.22 1023.95 1024.00 1023.75 1023.47 1023.16 1022.89
1022.49 1022.45 1022.50 1022.42 1022.45 1022.54 1022.70 1022.79 1022.99 1023.18 1023.53 1023.91 1024.16 1024.04 1023.83 1023.72 1024.14 1024.24 1024.41 1024.53 1024.53 1024.76 1024.78 1024.67 1024.95 1024.94 1024.63 1024.80 1024.87 1025.00 1025.20 1025.42 1025.68 1025.59 1025.41 1025.38 1025.26 1025.15 1024.74 1024.45 1024.29 1023.98 1023.71
1023.59 1023.42 1023.50 1023.52 1023.48 1023.49 1023.74 1023.79 1024.00 1024.21 1024.53 1024.83 1025.09 1025.22 1025.18 1025.22 1025.50 1025.64 1025.87 1025.99 1025.87 1025.66 1025.55 1025.68 1025.83 1025.76 1025.78 1025.85 1025.86 1026.00 1026.15 1026.35 1026.49 1026.67 1026.52 1026.34 1026.14 1025.80 1025.43 1025.18 1025.06 1024.93 1024.45
1024.58 1024.51 1024.45 1024.39 1024.51 1024.75 1024.81 1025.00 1025.21 1025.45 1025.69 1026.01 1026.18 1026.37 1026.61 1026.85 1026.89 1026.98 1027.08 1027.07 1026.85 1026.72 1026.58 1026.58 1026.69 1026.74 1026.75 1026.83 1026.77 1026.85 1026.87 1027.06 1027.24 1027.60 1027.34 1027.05 1026.73 1026.34 1026.01 1025.89 1025.63 1025.35 1024.93
1025.56 1025.49 1025.40 1025.61 1025.82 1025.90 1026.16 1026.46 1026.65 1026.69 1026.89 1027.17 1027.40 1027.64 1027.85 1028.03 1027.99 1028.04 1028.07 1027.92 1027.60 1027.50 1027.42 1027.51 1027.31 1027.30 1027.31 1027.53 1027.45 1027.27 1027.19 1027.30 1027.23 1027.22 1027.40 1027.54 1027.15 1026.77 1026.32 1025.98 1025.74 1025.60 1025.58
1026.42 1026.50 1026.63 1026.88 1027.14 1027.42 1027.72 1028.01 1028.15 1028.21 1028.23 1028.35 1028.52 1028.59 1028.79 1028.87 1029.02 1029.14 1029.18 1028.86 1028.48 1028.40 1028.05 1027.94 1027.74 1027.63 1027.68 1027.68 1027.59 1027.43 1027.30 1027.21 1027.20 1027.07 1027.08 1027.11 1027.27 1027.00 1026.63 1026.41 1026.23 1025.97 1025.68
1027.70 1027.77 1027.93 1028.06 1028.41 1028.69 1029.11 1029.40 1029.66 1029.41 1029.60 1029.47 1029.41 1029.42 1029.45 1029.52 1029.63 1029.76 1029.55 1029.26 1029.11 1028.85 1028.48 1028.27 1028.08 1028.01 1027.86 1027.54 1027.25 1027.15 1027.18 1027.16 1027.13 1026.98 1027.08 1026.93 1027.23 1027.21 1026.96 1026.67 1026.33 1026.05 1025.66
Thickness
5637 5634 5629 5625 5621 5617 5613 5608 5606 5604 5601 5598 5597 5595 5593 5591 5590 5588 5583 5579 5574 5574 5575 5575 5576 5575 5571 5572 5568 5568 5569 5567 5560 5574 5574 5576 5573 5574 5575 5575 5574 5574 5573
5634 5631 5628 5626 5623 5619 5616 5613 5610 5608 5605 5603 5601 5597 5596 5594 5591 5588 5585 5582 5579 5577 5576 5574 5575 5571 5571 5571 5569 5569 5567 5567 5562 5563 5570 5569 5567 5572 5571 5569 5571 5569 5567
5625 5623 5621 5621 5620 5618 5616 5613 5610 5607 5604 5601 5599 5597 5597 5595 5594 5592 5590 5586 5584 5581 5579 5579 5577 5571 5571 5570 5568 5566 5567 5566 5562 5558 5563 5569 5570 5567 5565 5563 5567 5564 5563
5622 5620 5616 5613 5613 5613 5613 5611 5608 5605 5603 5601 5600 5599 5598 5596 5593 5590 5587 5584 5582 5580 5579 5579 5576 5573 5574 5570 5567 5567 5567 5563 5561 5556 5556 5562 5564 5568 5563 5568 5570 5564 5565
5621 5618 5616 5614 5613 5612 5609 5608 5608 5606 5603 5601 5599 5597 5595 5595 5594 5590 5586 5582 5580 5579 5579 5580 5578 5577 5577 5576 5570 5571 5564 5560 5558 5557 5556 5559 5562 5564 5559 5564 5564 5566 5568
5617 5615 5613 5612 5610 5610 5609 5608 5607 5604 5602 5601 5602 5599 5597 5596 5592 5585 5581 5580 5579 5579 5580 5579 5578 5574 5576 5572 5568 5568 5566 5560 5557 5558 5562 5560 5564 5563 5564 5561 5561 5559 5558
5604 5601 5601 5604 5606 5604 5604 5604 5603 5600 5600 5599 5598 5596 5595 5594 5588 5583 5579 5579 5578 5579 5579 5578 5577 5578 5574 5572 5569 5562 5560 5558 5557 5560 5562 5562 5561 5560 5560 5558 5554 5554 5556
5584 5583 5584 5587 5590 5593 5596 5600 5599 5598 5597 5596 5594 5591 5589 5591 5580 5581 5579 5577 5578 5581 5582 5581 5579 5580 5577 5574 5571 5566 5562 5558 5552 5547 5545 5549 5545 5541 5542 5541 5537 5522 5513
5564 5564 5564 5570 5571 5573 5575 5578 5581 5583 5588 5592 5588 5587 5582 5567 5564 5566 5567 5571 5574 5577 5579 5575 5562 5569 5570 5564 5564 5563 5550 5534 5528 5526 5523 5521 5518 5518 5519 5519 5515 5509 5497
5541 5544 5546 5549 5551 5552 5553 5555 5560 5565 5564 5563 5556 5551 5549 5547 5548 5553 5554 5556 5561 5563 5549 5543 5542 5545 5547 5547 5546 5550 5532 5512 5503 5497 5496 5496 5495 5494 5494 5491 5487 5477 5477
5518 5522 5526 5529 5532 5532 5534 5536 5539 5541 5539 5535 5531 5527 5526 5525 5526 5532 5539 5540 5536 5530 5524 5518 5513 5517 5529 5532 5533 5520 5501 5491 5489 5479 5467 5458 5450 5455 5459 5455 5453 5454 5435
5503 5505 5509 5511 5512 5512 5514 5517 5519 5520 5518 5515 5510 5506 5502 5502 5505 5508 5510 5512 5510 5507 5498 5494 5491 5500 5496 5493 5493 5491 5483 5471 5465 5456 5444 5440 5431 5421 5418 5412 5411 5412 5406
5488 5485 5488 5489 5491 5493 5496 5498 5499 5500 5498 5493 5489 5485 5482 5479 5479 5479 5480 5479 5479 5473 5467 5464 5460 5461 5464 5463 5453 5444 5453 5452 5438 5422 5416 5402 5398 5393 5393 5386 5378 5374 5367
5467 5466 5469 5471 5470 5470 5471 5471 5472 5471 5470 5467 5464 5461 5458 5456 5454 5452 5450 5447 5446 5444 5437 5434 5431 5429 5427 5420 5420 5415 5413 5406 5396 5387 5381 5370 5368 5365 5359 5356 5355 5341 5341
5450 5448 5450 5451 5451 5448 5446 5447 5445 5444 5446 5445 5442 5439 5437 5433 5428 5425 5423 5420 5415 5411 5409 5405 5400 5394 5386 5381 5378 5375 5372 5367 5360 5353 5348 5343 5342 5337 5329 5325 5326 5318 5314
5435 5433 5430 5430 5429 5427 5422 5419 5418 5416 5416 5417 5415 5413 5408 5405 5402 5399 5395 5391 5387 5383 5379 5371 5364 5360 5355 5349 5345 5341 5337 5332 5327 5323 5319 5316 5312 5309 5304 5298 5295 5293 5288
5412 5411 5408 5406 5403 5403 5399 5397 5392 5388 5386 5385 5383 5382 5380 5377 5373 5368 5364 5360 5356 5353 5345 5336 5331 5327 5321 5317 5313 5308 5304 5300 5298 5295 5292 5287 5282 5280 5277 5271 5267 5266 5264
5386 5385 5384 5379 5377 5375 5374 5370 5365 5360 5355 5353 5351 5352 5350 5348 5344 5340 5335 5331 5322 5314 5308 5302 5297 5293 5289 5286 5283 5280 5276 5270 5266 5264 5261 5257 5256 5254 5249 5246 5242 5236 5235
5365 5361 5358 5353 5351 5349 5347 5343 5337 5332 5326 5323 5320 5316 5311 5311 5308 5305 5300 5295 5288 5283 5278 5273 5268 5264 5261 5258 5254 5250 5247 5242 5238 5234 5229 5227 5224 5223 5220 5215 5213 5207 5204
5338 5337 5333 5328 5325 5322 5318 5314 5309 5305 5300 5295 5290 5286 5284 5283 5278 5272 5267 5262 5259 5253 5249 5244 5240 5237 5233 5230 5228 5225 5219 5214 5211 5207 5199 5195 5193 5193 5188 5186 5183 5179 5176
5311 5308 5305 5303 5300 5297 5293 5289 5284 5280 5275 5268 5263 5261 5259 5256 5248 5243 5239 5234 5231 5225 5221 5219 5213 5210 5211 5206 5202 5196 5192 5187 5181 5179 5177 5173 5167 5166 5164 5161 5156 5152 5149
5284 5283 5280 5277 5275 5273 5269 5265 5260 5255 5250 5244 5239 5235 5232 5229 5223 5219 5213 5208 5205 5202 5200 5195 5190 5188 5184 5180 5176 5170 5165 5159 5156 5152 5149 5146 5143 5140 5138 5134 5128 5123 5121
5260 5258 5257 5255 5251 5246 5243 5239 5234 5229 5222 5216 5212 5208 5203 5198 5195 5191 5187 5183 5181 5178 5175 5171 5167 5163 5159 5155 5151 5146 5142 5136 5133 5129 5125 5120 5118 5115 5111 5107 5104 5100 5097
5237 5235 5234 5228 5224 5221 5216 5209 5205 5201 5196 5190 5185 5181 5176 5171 5167 5164 5161 5159 5157 5154 5152 5148 5145 5140 5135 5131 5127 5123 5118 5114 5111 5107 5103 5098 5094 5093 5089 5088 5086 5081 5078
5214 5210 5207 5201 5196 5191 5187 5181 5176 5172 5168 5164 5159 5156 5153 5149 5146 5141 5139 5136 5133 5130 5127 5124 5121 5117 5112 5108 5104 5099 5095 5091 5089 5086 5083 5081 5077 5075 5073 5070 5066 5063 5061
5186 5182 5178 5173 5168 5163 5158 5153 5147 5144 5140 5137 5134 5131 5129 5126 5122 5119 5116 5113 5109 5106 5103 5099 5094 5091 5087 5085 5082 5080 5077 5073 5070 5068 5066 5065 5062 5058 5055 5052 5051 5049 5048